SCP
0 0 -0 -0 0 0 0 0 0 -0 -0 0 0 0 0 0 0 0 -0 -0 0 0 -0 -0 -0 -0 -0 -0 0 -0 -0 0 0 0 0 0 0 0 0 0 0 -0 0 0 0 0 0 0 0
0 0 0 0 -0 0 -0 0 0 0 0 -0 0 0 0 -0 0 -0 0 -0 0 0 -0 -0 -0 -0 -0 -0 -0 -0 -0 -0 -0 0 -0 0 0 -0 0 -0 0 0 0 0 0 0 0 0 0
0 0 0 -0 0 -0 -0 0 -0 -0 -0 0 -0 0 0 0 0 0 -0 0 -0 -0 -0 -0 -0 -0 -0 -0 -0 -0 -0 -0 -0 -0 -0 0 0 0 0 -0 0 0 0 0 0 0 0 0 0
0 0 0 -0 0 0 0 0 0 -0 0 0 0 0 0 0 0 -0 -0 -0 -0 -0 -0 -0 -0 -0 -0 -0 -0 -0 -0 -0 0 -0 0 -0 0 0 -0 -0 0 0 0 0 0 0 0 0 0
0 0 0 -0 0 0 0 0 0 0 0 0 0 0 0 -0 0 -0 0 -0 -0 -0 -0 -0 -0 -0 -0 -0 -0 -0 -0 -0 0 0 -0 -0 0 -0 0 -0 -0 0 0 0 0 0 0 0 0
0 0 0 -0 -0 -0 0 0 0 0 0 0 0 0 0 -0 -0 0 -0 -0 -0 -0 -0 -0 -0 -0 -0 -0 -0 -0 -0 -0 0 -0 -0 0 0 0 0 0 -0 0 0 0 0 0 0 0 0
0 0 -0 -0 0 -0 -0 0 0 0 0 0 0 0 0 -0 0 0 -0 -0 -0 -0 -0 -0 -0 -0 -0 -0 -0 -0 -0 -0 -0 -0 -0 0 0 0 0 0 0 0 0 0 0 0 0 0 0
-0 0 -0 0 0 0 0 0 0 0 0 0 0 0 0 -0 0 0 -0 -0 -0 -0 -0 -0 -0 -0 -0 -0 -0 0 -0 -0 -0 -0 -0 0 0 0 0 0 -0 -0 0 0 0 0 0 0 0
0 -0 -0 0 0 0 0 0 0 0 0 0 0 -0 0 -0 0 0 0 -0 -0 -0 -0 -0 -0 0 0 0 0 0 0 -0 -0 -0 -0 0 0 0 0 -0 0 -0 0 0 0 0 0 0 0
0 0 -0 0 -0 0 -0 0 0 0 0 0 -0 -0 -0 -0 0 -0 0 0 -0 -0 -0 -0 -0 0 0 0 0 0 0 0 0 -0 0 0 0 0 0 -0 0 0 0 0 0 0 0 0 0
0 -0 -0 0 0 -0 0 -0 0 0 0 -0 -0 -0 -0 0 0 0 -0 -0 -0 -0 -0 -0 0 0 0 -0 0 0 0 0 0 -0 -0 0 0 0 0 0 0 0 0 0 0 0 0 1 1
0 -0 -0 -0 -0 0 0 0 0 0 0 0 -0 -0 0 0 0 0 0 -0 -0 -0 -0 -0 0 0 0 -0 -0 0 0 0 0 0 0 0 0 0 0 0 0 0 0 0 0 0 0 0 1
0 0 0 0 -0 -0 -0 0 0 0 0 0 -0 -0 0 -0 -0 -0 -0 -0 -0 -0 -0 -0 0 -0 -0 -0 -0 0 0 0 0 0 0 0 0 0 0 0 0 0 0 0 0 0 0 0 0
0 0 -0 0 0 -0 -0 0 -0 0 0 -0 -0 0 -0 -0 -0 -0 -0 -0 -0 -0 -0 -0 -0 -0 -0 -0 -0 -0 0 0 0 0 0 0 0 0 0 0 0 0 0 0 0 0 0 0 0
0 0 -0 -0 -0 -0 -0 0 -0 0 0 -0 -0 -0 0 -0 -0 -0 -0 -0 -0 -0 -0 -0 -0 -0 -0 0 -0 -0 0 0 0 0 0 0 0 0 0 0 0 0 0 0 0 0 0 0 0
0 0 0 -0 -0 0 -0 0 0 0 0 0 -0 0 -0 0 -0 0 0 0 -0 -0 -0 -0 -0 -0 -0 -0 0 -0 0 0 -0 0 -0 0 0 0 0 0 0 0 0 0 0 0 0 0 0
0 0 0 0 0 0 0 0 0 0 0 0 -0 -0 -0 -0 -0 0 0 0 0 -0 -0 0 -0 -0 -0 -0 -0 -0 0 -0 -0 0 0 0 0 0 0 0 0 0 0 0 0 0 0 0 0
0 0 0 0 0 0 0 -0 -0 0 0 0 -0 -0 0 -0 0 0 0 0 -0 -0 -0 -0 -0 -0 -0 -0 -0 0 0 0 0 0 0 0 0 0 0 0 0 0 0 0 0 0 0 0 0
0 0 0 0 0 0 0 -0 -0 0 0 0 0 -0 0 0 0 0 0 0 0 0 -0 -0 0 -0 0 0 0 -0 0 0 0 0 0 0 -0 -0 0 0 0 0 0 0 0 0 0 0 0
0 0 0 0 0 0 0 0 -0 -0 -0 0 0 0 0 0 0 0 0 0 0 0 0 -0 0 0 0 -0 0 0 0 0 0 0 0 0 -0 0 -0 0 0 0 0 0 0 0 0 0 0
0 0 0 0 0 0 0 0 0 0 -0 0 0 0 0 0 0 0 0 0 0 0 0 -0 0 0 0 -0 -0 0 0 0 0 0 0 0 0 -0 -0 -0 -0 0 0 0 0 0 0 0 0
0 0 0 0 0 -0 -0 -0 0 0 -0 -0 0 0 0 0 0 0 0 0 0 0 0 -0 -0 0 0 0 0 0 0 0 0 0 0 0 0 0 -0 -0 -0 -0 0 0 0 0 0 0 0
0 0 0 0 0 0 0 -0 0 0 -0 -0 0 -0 0 0 0 0 0 0 0 0 0 -0 -0 -0 0 0 0 0 0 0 0 0 0 0 0 0 0 0 -0 -0 0 0 0 0 0 0 0
0 0 0 0 0 0 0 0 -0 -0 -0 -0 -0 -0 0 0 0 0 0 0 0 0 0 0 0 -0 0 0 0 0 0 0 0 0 0 0 0 0 0 0 0 0 0 0 0 0 0 0 0
0 0 0 0 0 0 0 0 0 -0 0 -0 -0 0 -0 0 0 0 0 0 0 0 0 0 0 0 0 0 0 0 -0 0 0 0 0 0 0 0 0 0 0 0 0 -0 0 0 0 0 0
0 0 0 0 0 0 0 0 0 0 0 0 -0 -0 -0 0 0 0 0 0 0 0 0 0 0 0 0 0 0 0 0 0 0 0 0 0 0 0 0 0 0 0 -0 -0 0 0 0 0 0
0 0 0 0 0 0 0 0 0 0 0 -0 0 -0 0 0 0 0 0 0 0 0 0 0 0 0 0 0 0 0 0 0 0 0 0 0 0 0 0 0 0 0 0 0 0 0 0 0 0
0 0 0 0 0 0 0 0 0 0 0 0 0 0 0 0 0 0 0 0 0 0 0 -0 0 0 0 0 0 0 0 0 0 0 0 0 0 0 0 0 0 0 0 0 0 0 0 0 0
0 0 0 0 0 0 0 0 0 0 0 0 0 0 0 0 0 0 0 0 0 0 0 0 0 0 0 0 0 0 0 0 0 0 0 0 0 0 0 0 0 0 0 0 0 0 0 0 0
0 0 0 0 0 0 0 0 0 0 0 0 0 0 0 0 0 0 0 0 0 0 0 0 0 0 0 0 0 0 0 0 0 0 0 0 0 0 0 0 0 0 0 0 0 0 0 0 0
Wind_Speed_500mb
17 18 7 4 5 2 5 6 3 17 14 16 41 12 8 12 3 6 48 48 48 45 42 37 29 26 24 23 25 26 23 24 25 23 24 26 26 28 28 30 27 31 35 30 38 42 39 38 35
18 13 3 4 4 3 6 3 3 7 31 65 24 33 13 7 9 37 57 52 47 46 43 36 28 24 21 19 19 20 20 22 21 22 22 24 24 28 28 29 28 32 35 37 40 41 42 41 37
16 5 2 2 4 1 4 7 7 21 55 46 13 25 9 7 25 65 52 57 48 45 40 33 27 21 19 17 16 17 16 17 22 20 21 22 22 26 28 29 28 31 33 35 35 32 29 30 32
6 2 2 3 7 4 5 5 29 40 28 11 36 19 15 23 53 42 57 50 49 41 38 29 25 21 19 15 15 18 16 15 19 18 21 23 22 25 26 27 29 34 30 32 29 30 32 30 29
8 2 2 1 1 3 11 8 10 7 12 21 5 14 25 24 24 59 54 47 45 44 36 30 23 19 20 18 14 16 16 16 19 20 21 24 22 25 25 25 29 30 31 30 31 33 33 30 28
2 4 2 2 8 10 7 16 3 12 25 26 29 31 12 18 55 58 51 47 44 43 36 29 21 19 19 17 16 17 16 17 17 21 22 23 22 23 23 24 26 28 29 29 30 29 27 30 32
4 4 4 8 7 11 5 22 13 19 26 16 38 16 28 42 59 55 50 46 42 37 30 27 24 20 20 17 18 17 16 18 20 20 23 25 23 23 23 24 23 28 29 27 30 27 25 27 30
1 1 5 5 18 7 3 10 14 26 14 33 42 12 26 67 59 54 49 44 38 31 27 26 26 23 22 20 17 18 18 17 18 22 26 26 25 24 23 23 24 28 30 28 28 25 21 23 26
4 1 5 5 6 16 15 4 12 21 36 8 7 50 67 69 61 55 52 45 38 34 29 26 23 23 20 21 20 21 20 19 18 23 29 30 29 25 23 23 24 27 27 27 25 25 23 24 21
6 1 1 9 9 18 25 10 3 13 27 34 56 51 71 66 61 57 53 47 41 37 32 28 25 23 22 21 21 24 23 18 22 26 28 32 29 27 25 25 26 27 27 23 21 20 17 20 20
9 4 8 9 32 24 14 17 13 25 9 56 72 73 72 65 59 55 51 43 38 35 32 30 28 23 22 25 27 28 27 23 25 30 31 31 30 23 25 29 29 28 26 21 17 13 10 13 16
5 10 4 1 33 37 20 14 10 12 11 57 83 81 75 68 60 56 49 43 39 36 33 31 28 23 25 29 32 26 26 24 28 31 30 30 29 31 31 33 30 27 24 16 11 14 18 19 13
6 11 10 6 33 48 33 18 24 10 33 58 75 75 72 63 55 50 44 38 38 39 35 31 27 26 29 34 28 28 27 24 26 28 28 31 32 33 31 30 28 25 20 16 16 14 14 21 19
10 17 21 17 30 34 34 16 11 15 27 56 69 71 68 60 51 47 44 46 42 41 39 34 31 32 34 30 32 32 30 30 28 26 26 35 34 25 23 27 18 21 17 13 13 7 8 13 14
6 11 12 17 31 21 41 17 14 22 49 60 64 67 63 58 52 52 44 49 43 40 38 31 32 33 36 31 32 31 28 26 25 26 29 29 25 19 24 22 23 20 13 11 13 13 8 4 10
8 10 7 14 30 21 1 8 15 29 48 53 55 60 62 61 56 51 42 43 42 39 36 36 33 33 34 31 29 29 25 25 27 25 25 19 17 15 17 19 15 17 16 11 12 14 12 13 14
10 6 7 12 32 15 6 8 9 20 28 52 52 52 61 58 60 54 45 42 41 35 33 36 33 32 31 30 24 22 21 20 21 22 20 19 15 15 12 18 16 15 16 11 8 10 8 7 6
5 5 5 13 21 15 4 12 14 28 19 34 50 53 57 56 65 59 50 44 40 37 33 32 34 32 31 30 25 20 22 18 16 17 21 19 17 19 13 16 15 13 14 7 8 8 10 5 5
7 8 15 10 4 10 5 10 8 23 23 24 34 53 52 64 61 58 52 46 43 39 37 34 36 37 32 29 28 24 23 19 18 16 17 22 21 21 19 13 16 16 11 10 5 5 8 5 10
11 11 10 9 4 7 8 10 13 31 32 23 27 54 60 57 55 62 55 52 48 44 40 38 38 30 31 23 25 19 16 18 18 19 22 24 22 23 21 16 17 18 10 10 6 5 7 8 11
4 11 9 12 10 11 15 7 9 15 27 24 25 35 63 65 61 64 63 59 53 51 44 42 40 29 22 28 25 21 19 19 18 19 23 22 24 24 25 20 18 20 12 13 8 3 4 5 10
9 15 21 28 9 8 5 6 8 19 26 25 28 28 57 63 64 64 68 64 61 55 48 43 41 30 23 35 26 20 21 17 13 19 16 19 22 26 24 26 22 20 17 15 12 8 1 3 4
12 14 29 23 9 9 13 3 5 21 24 26 24 32 60 68 68 68 76 69 64 56 50 44 43 37 27 35 27 25 21 15 14 20 18 19 19 23 24 22 24 24 17 15 14 14 7 3 1
10 18 18 10 7 3 16 11 9 22 42 43 58 57 59 72 74 68 80 73 66 60 52 47 44 42 33 31 33 28 20 23 17 17 17 22 21 19 23 21 22 22 18 17 16 19 14 8 2
8 9 4 7 2 11 7 9 12 19 21 54 70 68 61 75 77 75 84 78 71 68 58 51 44 47 40 35 36 33 25 16 17 15 15 21 23 21 22 22 20 21 21 20 17 22 20 14 9
16 16 11 11 9 6 7 10 7 12 23 39 44 61 55 69 71 75 83 78 72 66 61 52 46 46 45 37 33 36 32 23 16 16 20 18 20 16 17 19 18 20 19 23 23 20 24 21 18
9 8 11 13 6 7 4 5 9 15 9 34 44 53 55 71 74 75 75 59 49 51 60 58 53 46 46 39 34 35 35 28 22 17 22 20 19 18 19 19 18 16 15 16 21 21 25 26 24
10 12 6 6 10 7 3 5 6 6 6 15 32 37 50 68 75 74 77 63 44 51 56 55 56 49 42 39 36 36 36 27 23 19 13 19 24 14 16 18 18 15 13 16 22 23 24 26 27
4 1 13 11 6 10 7 8 4 8 10 16 22 28 44 61 70 72 76 67 54 47 66 58 56 53 50 44 37 34 36 33 23 20 12 9 15 18 19 18 18 18 17 16 20 25 27 29 30
1 8 10 10 7 3 5 5 4 10 19 25 26 34 35 48 59 67 72 57 61 64 62 53 49 34 33 41 40 35 33 36 32 27 19 19 16 16 15 19 20 20 20 21 21 23 23 26 23
Wind_Direction_500mb
156 134 127 44 53 22 302 286 23 104 135 178 151 156 164 66 109 165 143 149 157 152 149 145 147 145 139 134 130 125 127 126 122 116 113 111 109 113 106 105 103 113 112 114 112 115 110 106 103
140 134 120 89 89 137 237 284 110 181 154 141 113 119 62 85 89 138 146 150 157 150 149 147 148 147 143 142 144 140 133 136 131 130 120 110 110 115 112 109 106 112 116 107 109 107 104 97 94
139 129 38 133 128 190 349 0 124 114 139 140 105 103 73 77 132 141 148 152 158 151 149 148 150 144 138 135 139 146 149 149 143 135 131 121 115 117 115 117 117 122 118 113 111 109 103 99 89
159 14 5 314 140 178 266 83 110 116 125 124 124 75 74 128 135 145 148 155 158 156 151 147 148 147 140 141 133 142 135 141 151 139 134 130 129 121 116 114 122 128 122 116 105 102 99 96 85
142 23 339 357 243 218 251 297 77 98 99 130 108 95 109 139 141 145 145 151 161 160 154 150 148 150 149 144 136 145 131 130 143 140 140 140 137 128 117 117 130 127 124 113 99 103 96 89 80
170 75 46 238 187 160 250 349 73 87 112 105 99 106 107 155 148 145 142 145 153 153 151 150 146 149 143 142 137 140 140 133 145 143 140 139 139 133 118 116 125 130 121 109 99 104 93 82 71
241 135 222 217 190 150 114 324 91 85 115 112 131 114 136 152 149 146 145 146 148 148 151 150 148 145 150 147 140 138 133 137 142 147 144 143 140 140 123 120 122 130 120 107 104 108 92 76 68
233 298 264 340 159 106 141 345 84 100 72 130 121 154 150 154 154 150 150 150 150 150 150 151 153 147 148 139 138 133 129 133 140 142 144 145 141 138 128 125 129 132 128 118 106 98 80 74 70
155 74 326 24 100 121 142 46 54 113 138 94 182 147 151 156 156 155 156 156 155 153 155 154 150 149 149 142 136 133 127 132 136 144 148 149 139 130 135 134 140 140 136 126 109 93 77 67 71
146 131 331 18 111 167 146 101 132 146 99 104 108 141 152 155 159 161 161 160 161 160 157 152 154 156 151 146 139 135 132 141 141 145 148 146 139 136 138 139 138 144 144 133 111 98 75 64 61
167 155 209 88 111 147 161 144 209 130 103 150 141 151 156 158 164 166 165 162 158 159 159 155 156 155 155 141 138 132 125 131 134 144 145 145 142 130 129 133 133 132 133 123 105 82 57 43 62
150 163 168 318 151 168 164 136 123 23 114 156 149 154 158 161 167 171 169 164 165 162 156 155 152 152 150 144 143 138 131 119 132 137 140 137 134 132 133 131 130 129 123 114 95 80 65 41 66
208 178 131 78 135 156 145 132 165 154 133 154 153 157 163 165 171 178 171 163 164 160 154 150 153 152 150 147 145 139 143 129 134 139 136 136 135 129 128 132 134 134 128 117 115 96 73 51 89
205 167 140 139 134 147 138 134 143 194 156 162 163 164 168 171 174 180 173 163 159 155 149 146 140 143 150 149 145 140 135 127 130 138 138 138 135 135 143 149 149 141 128 110 100 79 68 62 60
215 117 131 148 144 138 125 148 208 173 162 164 172 171 174 177 180 182 171 169 159 155 157 151 153 142 148 148 151 149 145 141 140 140 140 142 139 135 142 149 146 147 142 102 69 48 40 52 58
114 102 153 162 157 160 44 160 165 157 156 169 173 176 180 188 188 188 181 177 167 162 162 164 152 151 157 156 157 157 154 148 144 145 162 151 152 140 150 148 152 145 156 123 52 60 55 51 58
14 170 178 157 176 132 43 83 264 169 174 172 176 176 185 195 198 194 190 185 179 168 166 175 169 162 166 171 168 169 170 164 170 166 165 177 174 154 156 160 154 154 161 137 88 67 37 10 36
194 125 141 126 181 141 86 53 169 189 184 161 180 182 182 192 201 199 194 191 189 181 177 176 179 179 180 179 176 177 179 177 164 176 184 185 180 170 160 161 166 164 158 150 104 57 31 69 72
126 78 102 81 10 86 357 359 169 185 217 186 179 184 184 197 208 200 198 194 192 191 186 181 182 177 180 183 184 178 184 188 195 192 195 200 197 194 179 173 163 156 157 151 114 54 17 359 5
105 97 78 71 31 67 123 323 160 181 208 210 176 186 191 194 200 200 201 198 199 193 193 187 182 174 187 189 189 189 187 196 209 208 203 204 199 197 194 191 182 173 162 170 161 65 60 32 18
141 141 168 139 125 45 115 6 127 186 218 240 212 194 196 196 199 199 202 202 200 197 195 190 186 186 190 188 194 204 207 200 201 207 200 203 203 200 199 202 202 196 195 192 194 131 70 25 14
183 189 153 142 114 150 164 204 233 191 216 229 239 204 196 201 204 203 202 205 204 201 197 193 187 185 195 194 203 208 198 199 198 195 195 193 193 196 204 215 219 205 200 196 218 197 274 335 347
223 167 159 161 101 106 190 146 231 166 207 227 241 212 197 202 203 206 202 205 204 200 198 197 195 194 198 202 205 208 210 204 193 191 195 190 190 202 207 211 208 196 202 210 214 207 219 276 354
122 88 50 61 74 309 192 187 226 189 202 199 204 226 204 203 206 208 203 204 207 204 202 199 201 201 206 202 206 214 223 212 203 207 209 208 195 193 190 188 191 208 222 222 228 215 217 222 212
79 77 71 49 85 219 239 131 240 225 206 195 199 207 209 204 204 202 203 205 208 207 205 203 204 208 212 210 216 221 222 223 201 241 226 214 209 207 198 201 216 225 228 230 232 214 221 229 230
183 162 151 156 189 218 102 214 259 301 226 210 210 207 209 201 201 202 203 207 210 210 213 209 210 210 216 217 225 222 226 237 231 241 231 227 219 228 222 221 228 226 229 232 219 223 226 232 245
189 169 184 104 26 98 232 299 298 16 66 163 162 182 187 196 193 198 198 200 213 211 221 219 218 216 218 224 228 227 230 241 242 243 251 227 217 223 226 227 227 232 241 230 222 226 228 234 252
161 163 99 16 138 182 296 281 251 3 57 126 145 148 166 183 190 191 197 200 227 228 227 238 231 224 222 227 233 235 234 240 244 240 228 236 226 222 224 215 222 228 240 247 235 243 236 241 246
117 104 51 108 101 150 156 252 217 231 161 140 134 147 157 171 182 188 200 205 206 221 230 243 240 230 225 226 234 238 239 239 240 247 240 255 231 229 224 223 241 240 249 257 256 247 247 245 250
74 144 134 122 221 40 130 244 343 95 120 136 148 163 166 160 173 189 197 206 210 217 221 227 227 219 231 239 236 236 237 237 244 248 253 246 242 245 262 262 260 256 252 257 257 245 251 247 251
Wind_Speed_850mb
17 18 7 4 5 2 5 6 3 17 14 16 41 12 8 12 3 6 48 48 48 45 42 37 29 26 24 23 25 26 23 24 25 23 24 26 26 28 28 30 27 31 35 30 38 42 39 38 35
18 13 3 4 4 3 6 3 3 7 31 65 24 33 13 7 9 37 57 52 47 46 43 36 28 24 21 19 19 20 20 22 21 22 22 24 24 28 28 29 28 32 35 37 40 41 42 41 37
16 5 2 2 4 1 4 7 7 21 55 46 13 25 9 7 25 65 52 57 48 45 40 33 27 21 19 17 16 17 16 17 22 20 21 22 22 26 28 29 28 31 33 35 35 32 29 30 32
6 2 2 3 7 4 5 5 29 40 28 11 36 19 15 23 53 42 57 50 49 41 38 29 25 21 19 15 15 18 16 15 19 18 21 23 22 25 26 27 29 34 30 32 29 30 32 30 29
8 2 2 1 1 3 11 8 10 7 12 21 5 14 25 24 24 59 54 47 45 44 36 30 23 19 20 18 14 16 16 16 19 20 21 24 22 25 25 25 29 30 31 30 31 33 33 30 28
2 4 2 2 8 10 7 16 3 12 25 26 29 31 12 18 55 58 51 47 44 43 36 29 21 19 19 17 16 17 16 17 17 21 22 23 22 23 23 24 26 28 29 29 30 29 27 30 32
4 4 4 8 7 11 5 22 13 19 26 16 38 16 28 42 59 55 50 46 42 37 30 27 24 20 20 17 18 17 16 18 20 20 23 25 23 23 23 24 23 28 29 27 30 27 25 27 30
1 1 5 5 18 7 3 10 14 26 14 33 42 12 26 67 59 54 49 44 38 31 27 26 26 23 22 20 17 18 18 17 18 22 26 26 25 24 23 23 24 28 30 28 28 25 21 23 26
4 1 5 5 6 16 15 4 12 21 36 8 7 50 67 69 61 55 52 45 38 34 29 26 23 23 20 21 20 21 20 19 18 23 29 30 29 25 23 23 24 27 27 27 25 25 23 24 21
6 1 1 9 9 18 25 10 3 13 27 34 56 51 71 66 61 57 53 47 41 37 32 28 25 23 22 21 21 24 23 18 22 26 28 32 29 27 25 25 26 27 27 23 21 20 17 20 20
9 4 8 9 32 24 14 17 13 25 9 56 72 73 72 65 59 55 51 43 38 35 32 30 28 23 22 25 27 28 27 23 25 30 31 31 30 23 25 29 29 28 26 21 17 13 10 13 16
5 10 4 1 33 37 20 14 10 12 11 57 83 81 75 68 60 56 49 43 39 36 33 31 28 23 25 29 32 26 26 24 28 31 30 30 29 31 31 33 30 27 24 16 11 14 18 19 13
6 11 10 6 33 48 33 18 24 10 33 58 75 75 72 63 55 50 44 38 38 39 35 31 27 26 29 34 28 28 27 24 26 28 28 31 32 33 31 30 28 25 20 16 16 14 14 21 19
10 17 21 17 30 34 34 16 11 15 27 56 69 71 68 60 51 47 44 46 42 41 39 34 31 32 34 30 32 32 30 30 28 26 26 35 34 25 23 27 18 21 17 13 13 7 8 13 14
6 11 12 17 31 21 41 17 14 22 49 60 64 67 63 58 52 52 44 49 43 40 38 31 32 33 36 31 32 31 28 26 25 26 29 29 25 19 24 22 23 20 13 11 13 13 8 4 10
8 10 7 14 30 21 1 8 15 29 48 53 55 60 62 61 56 51 42 43 42 39 36 36 33 33 34 31 29 29 25 25 27 25 25 19 17 15 17 19 15 17 16 11 12 14 12 13 14
10 6 7 12 32 15 6 8 9 20 28 52 52 52 61 58 60 54 45 42 41 35 33 36 33 32 31 30 24 22 21 20 21 22 20 19 15 15 12 18 16 15 16 11 8 10 8 7 6
5 5 5 13 21 15 4 12 14 28 19 34 50 53 57 56 65 59 50 44 40 37 33 32 34 32 31 30 25 20 22 18 16 17 21 19 17 19 13 16 15 13 14 7 8 8 10 5 5
7 8 15 10 4 10 5 10 8 23 23 24 34 53 52 64 61 58 52 46 43 39 37 34 36 37 32 29 28 24 23 19 18 16 17 22 21 21 19 13 16 16 11 10 5 5 8 5 10
11 11 10 9 4 7 8 10 13 31 32 23 27 54 60 57 55 62 55 52 48 44 40 38 38 30 31 23 25 19 16 18 18 19 22 24 22 23 21 16 17 18 10 10 6 5 7 8 11
4 11 9 12 10 11 15 7 9 15 27 24 25 35 63 65 61 64 63 59 53 51 44 42 40 29 22 28 25 21 19 19 18 19 23 22 24 24 25 20 18 20 12 13 8 3 4 5 10
9 15 21 28 9 8 5 6 8 19 26 25 28 28 57 63 64 64 68 64 61 55 48 43 41 30 23 35 26 20 21 17 13 19 16 19 22 26 24 26 22 20 17 15 12 8 1 3 4
12 14 29 23 9 9 13 3 5 21 24 26 24 32 60 68 68 68 76 69 64 56 50 44 43 37 27 35 27 25 21 15 14 20 18 19 19 23 24 22 24 24 17 15 14 14 7 3 1
10 18 18 10 7 3 16 11 9 22 42 43 58 57 59 72 74 68 80 73 66 60 52 47 44 42 33 31 33 28 20 23 17 17 17 22 21 19 23 21 22 22 18 17 16 19 14 8 2
8 9 4 7 2 11 7 9 12 19 21 54 70 68 61 75 77 75 84 78 71 68 58 51 44 47 40 35 36 33 25 16 17 15 15 21 23 21 22 22 20 21 21 20 17 22 20 14 9
16 16 11 11 9 6 7 10 7 12 23 39 44 61 55 69 71 75 83 78 72 66 61 52 46 46 45 37 33 36 32 23 16 16 20 18 20 16 17 19 18 20 19 23 23 20 24 21 18
9 8 11 13 6 7 4 5 9 15 9 34 44 53 55 71 74 75 75 59 49 51 60 58 53 46 46 39 34 35 35 28 22 17 22 20 19 18 19 19 18 16 15 16 21 21 25 26 24
10 12 6 6 10 7 3 5 6 6 6 15 32 37 50 68 75 74 77 63 44 51 56 55 56 49 42 39 36 36 36 27 23 19 13 19 24 14 16 18 18 15 13 16 22 23 24 26 27
4 1 13 11 6 10 7 8 4 8 10 16 22 28 44 61 70 72 76 67 54 47 66 58 56 53 50 44 37 34 36 33 23 20 12 9 15 18 19 18 18 18 17 16 20 25 27 29 30
1 8 10 10 7 3 5 5 4 10 19 25 26 34 35 48 59 67 72 57 61 64 62 53 49 34 33 41 40 35 33 36 32 27 19 19 16 16 15 19 20 20 20 21 21 23 23 26 23
Wind_Direction_850mb
156 134 127 44 53 22 302 286 23 104 135 178 151 156 164 66 109 165 143 149 157 152 149 145 147 145 139 134 130 125 127 126 122 116 113 111 109 113 106 105 103 113 112 114 112 115 110 106 103
140 134 120 89 89 137 237 284 110 181 154 141 113 119 62 85 89 138 146 150 157 150 149 147 148 147 143 142 144 140 133 136 131 130 120 110 110 115 112 109 106 112 116 107 109 107 104 97 94
139 129 38 133 128 190 349 0 124 114 139 140 105 103 73 77 132 141 148 152 158 151 149 148 150 144 138 135 139 146 149 149 143 135 131 121 115 117 115 117 117 122 118 113 111 109 103 99 89
159 14 5 314 140 178 266 83 110 116 125 124 124 75 74 128 135 145 148 155 158 156 151 147 148 147 140 141 133 142 135 141 151 139 134 130 129 121 116 114 122 128 122 116 105 102 99 96 85
142 23 339 357 243 218 251 297 77 98 99 130 108 95 109 139 141 145 145 151 161 160 154 150 148 150 149 144 136 145 131 130 143 140 140 140 137 128 117 117 130 127 124 113 99 103 96 89 80
170 75 46 238 187 160 250 349 73 87 112 105 99 106 107 155 148 145 142 145 153 153 151 150 146 149 143 142 137 140 140 133 145 143 140 139 139 133 118 116 125 130 121 109 99 104 93 82 71
241 135 222 217 190 150 114 324 91 85 115 112 131 114 136 152 149 146 145 146 148 148 151 150 148 145 150 147 140 138 133 137 142 147 144 143 140 140 123 120 122 130 120 107 104 108 92 76 68
233 298 264 340 159 106 141 345 84 100 72 130 121 154 150 154 154 150 150 150 150 150 150 151 153 147 148 139 138 133 129 133 140 142 144 145 141 138 128 125 129 132 128 118 106 98 80 74 70
155 74 326 24 100 121 142 46 54 113 138 94 182 147 151 156 156 155 156 156 155 153 155 154 150 149 149 142 136 133 127 132 136 144 148 149 139 130 135 134 140 140 136 126 109 93 77 67 71
146 131 331 18 111 167 146 101 132 146 99 104 108 141 152 155 159 161 161 160 161 160 157 152 154 156 151 146 139 135 132 141 141 145 148 146 139 136 138 139 138 144 144 133 111 98 75 64 61
167 155 209 88 111 147 161 144 209 130 103 150 141 151 156 158 164 166 165 162 158 159 159 155 156 155 155 141 138 132 125 131 134 144 145 145 142 130 129 133 133 132 133 123 105 82 57 43 62
150 163 168 318 151 168 164 136 123 23 114 156 149 154 158 161 167 171 169 164 165 162 156 155 152 152 150 144 143 138 131 119 132 137 140 137 134 132 133 131 130 129 123 114 95 80 65 41 66
208 178 131 78 135 156 145 132 165 154 133 154 153 157 163 165 171 178 171 163 164 160 154 150 153 152 150 147 145 139 143 129 134 139 136 136 135 129 128 132 134 134 128 117 115 96 73 51 89
205 167 140 139 134 147 138 134 143 194 156 162 163 164 168 171 174 180 173 163 159 155 149 146 140 143 150 149 145 140 135 127 130 138 138 138 135 135 143 149 149 141 128 110 100 79 68 62 60
215 117 131 148 144 138 125 148 208 173 162 164 172 171 174 177 180 182 171 169 159 155 157 151 153 142 148 148 151 149 145 141 140 140 140 142 139 135 142 149 146 147 142 102 69 48 40 52 58
114 102 153 162 157 160 44 160 165 157 156 169 173 176 180 188 188 188 181 177 167 162 162 164 152 151 157 156 157 157 154 148 144 145 162 151 152 140 150 148 152 145 156 123 52 60 55 51 58
14 170 178 157 176 132 43 83 264 169 174 172 176 176 185 195 198 194 190 185 179 168 166 175 169 162 166 171 168 169 170 164 170 166 165 177 174 154 156 160 154 154 161 137 88 67 37 10 36
194 125 141 126 181 141 86 53 169 189 184 161 180 182 182 192 201 199 194 191 189 181 177 176 179 179 180 179 176 177 179 177 164 176 184 185 180 170 160 161 166 164 158 150 104 57 31 69 72
126 78 102 81 10 86 357 359 169 185 217 186 179 184 184 197 208 200 198 194 192 191 186 181 182 177 180 183 184 178 184 188 195 192 195 200 197 194 179 173 163 156 157 151 114 54 17 359 5
105 97 78 71 31 67 123 323 160 181 208 210 176 186 191 194 200 200 201 198 199 193 193 187 182 174 187 189 189 189 187 196 209 208 203 204 199 197 194 191 182 173 162 170 161 65 60 32 18
141 141 168 139 125 45 115 6 127 186 218 240 212 194 196 196 199 199 202 202 200 197 195 190 186 186 190 188 194 204 207 200 201 207 200 203 203 200 199 202 202 196 195 192 194 131 70 25 14
183 189 153 142 114 150 164 204 233 191 216 229 239 204 196 201 204 203 202 205 204 201 197 193 187 185 195 194 203 208 198 199 198 195 195 193 193 196 204 215 219 205 200 196 218 197 274 335 347
223 167 159 161 101 106 190 146 231 166 207 227 241 212 197 202 203 206 202 205 204 200 198 197 195 194 198 202 205 208 210 204 193 191 195 190 190 202 207 211 208 196 202 210 214 207 219 276 354
122 88 50 61 74 309 192 187 226 189 202 199 204 226 204 203 206 208 203 204 207 204 202 199 201 201 206 202 206 214 223 212 203 207 209 208 195 193 190 188 191 208 222 222 228 215 217 222 212
79 77 71 49 85 219 239 131 240 225 206 195 199 207 209 204 204 202 203 205 208 207 205 203 204 208 212 210 216 221 222 223 201 241 226 214 209 207 198 201 216 225 228 230 232 214 221 229 230
183 162 151 156 189 218 102 214 259 301 226 210 210 207 209 201 201 202 203 207 210 210 213 209 210 210 216 217 225 222 226 237 231 241 231 227 219 228 222 221 228 226 229 232 219 223 226 232 245
189 169 184 104 26 98 232 299 298 16 66 163 162 182 187 196 193 198 198 200 213 211 221 219 218 216 218 224 228 227 230 241 242 243 251 227 217 223 226 227 227 232 241 230 222 226 228 234 252
161 163 99 16 138 182 296 281 251 3 57 126 145 148 166 183 190 191 197 200 227 228 227 238 231 224 222 227 233 235 234 240 244 240 228 236 226 222 224 215 222 228 240 247 235 243 236 241 246
117 104 51 108 101 150 156 252 217 231 161 140 134 147 157 171 182 188 200 205 206 221 230 243 240 230 225 226 234 238 239 239 240 247 240 255 231 229 224 223 241 240 249 257 256 247 247 245 250
74 144 134 122 221 40 130 244 343 95 120 136 148 163 166 160 173 189 197 206 210 217 221 227 227 219 231 239 236 236 237 237 244 248 253 246 242 245 262 262 260 256 252 257 257 245 251 247 251